TimeEDT,TemperatureF,Dew PointF,Humidity,Sea Level PressureIn,VisibilityMPH,Wind Direction,Wind SpeedMPH,Gust SpeedMPH,PrecipitationIn,Events,Conditions,WindDirDegrees,DateUTC
12:53 AM,75.9,72.0,87,30.07,10.0,SW,3.5,-,N/A,,Clear,230,2012-09-02 04:53:00
1:53 AM,75.9,71.1,85,30.05,10.0,Calm,Calm,-,N/A,,Clear,0,2012-09-02 05:53:00
2:53 AM,75.0,71.1,87,30.04,10.0,Calm,Calm,-,N/A,,Clear,0,2012-09-02 06:53:00
3:53 AM,73.9,71.1,91,30.02,10.0,Calm,Calm,-,N/A,,Mostly Cloudy,0,2012-09-02 07:53:00
4:53 AM,73.9,71.1,91,30.01,10.0,Calm,Calm,-,N/A,,Mostly Cloudy,0,2012-09-02 08:53:00
5:53 AM,73.9,71.1,91,30.01,10.0,Calm,Calm,-,N/A,,Mostly Cloudy,0,2012-09-02 09:53:00
6:53 AM,72.0,70.0,93,30.00,10.0,Calm,Calm,-,N/A,,Mostly Cloudy,0,2012-09-02 10:53:00
7:53 AM,73.0,71.1,93,30.01,10.0,SE,4.6,-,N/A,,Mostly Cloudy,130,2012-09-02 11:53:00
8:53 AM,77.0,71.6,83,30.05,10.0,SW,5.8,-,N/A,,Mostly Cloudy,220,2012-09-02 12:53:00
9:53 AM,79.0,72.0,79,30.02,10.0,South,6.9,-,N/A,,Mostly Cloudy,180,2012-09-02 13:53:00
10:53 AM,84.0,73.0,69,30.01,10.0,SSE,8.1,-,N/A,,Mostly Cloudy,160,2012-09-02 14:53:00
11:53 AM,84.0,73.0,69,30.01,10.0,Variable,5.8,-,N/A,,Overcast,0,2012-09-02 15:53:00
12:53 PM,87.1,72.0,61,29.98,10.0,SSW,11.5,-,N/A,,Overcast,200,2012-09-02 16:53:00
1:50 PM,87.8,71.6,58,29.98,2.0,SSW,15.0,20.7,0.00,Rain-Thunderstorm,Thunderstorms and Rain,210,2012-09-02 17:50:00
1:53 PM,86.0,72.0,63,29.96,4.0,SSW,15.0,20.7,0.00,Rain-Thunderstorm,Light Thunderstorms and Rain,210,2012-09-02 17:53:00
1:58 PM,80.6,71.6,74,30.01,0.5,West,23.0,32.2,0.00,Rain-Thunderstorm,Heavy Thunderstorms and Rain,280,2012-09-02 17:58:00
2:05 PM,75.2,73.4,94,30.00,0.5,North,9.2,32.2,0.28,Rain-Thunderstorm,Heavy Thunderstorms and Rain,350,2012-09-02 18:05:00
2:08 PM,75.2,73.4,94,30.01,10.0,NNW,8.1,-,0.29,Rain,Rain,340,2012-09-02 18:08:00
2:53 PM,80.6,73.4,79,29.97,10.0,Calm,Calm,-,N/A,,Mostly Cloudy,0,2012-09-02 18:53:00
3:53 PM,84.9,71.1,63,29.92,10.0,South,13.8,-,N/A,,Mostly Cloudy,190,2012-09-02 19:53:00
4:53 PM,84.0,71.1,65,29.91,10.0,SSW,8.1,-,N/A,,Mostly Cloudy,210,2012-09-02 20:53:00
5:53 PM,86.0,73.0,65,29.88,10.0,South,11.5,-,N/A,,Mostly Cloudy,180,2012-09-02 21:53:00
6:35 PM,86.0,73.4,66,29.90,10.0,SSW,12.7,-,N/A,Thunderstorm,Thunderstorm,200,2012-09-02 22:35:00
6:53 PM,86.0,73.0,65,29.88,10.0,SSW,12.7,-,N/A,Thunderstorm,Thunderstorm,200,2012-09-02 22:53:00
7:05 PM,86.0,73.4,66,29.90,10.0,South,12.7,-,N/A,,Mostly Cloudy,190,2012-09-02 23:05:00
7:43 PM,77.0,66.2,69,29.94,1.0,West,24.2,33.4,0.00,Rain,Rain,270,2012-09-02 23:43:00
7:46 PM,73.4,68.0,83,29.93,0.8,West,15.0,33.4,0.01,Rain,Rain,270,2012-09-02 23:46:00
7:51 PM,73.4,68.0,83,29.93,5.0,West,12.7,33.4,0.03,Rain,Rain,260,2012-09-02 23:51:00
7:53 PM,73.0,68.0,84,29.91,5.0,WSW,10.4,27.6,0.03,Rain,Rain,250,2012-09-02 23:53:00
8:13 PM,73.4,69.8,88,29.93,6.0,SE,3.5,-,0.01,Rain-Thunderstorm,Light Thunderstorms and Rain,140,2012-09-03 00:13:00
8:49 PM,73.4,69.8,88,29.96,1.0,WSW,9.2,-,0.03,Rain-Thunderstorm,Thunderstorms and Rain,240,2012-09-03 00:49:00
8:53 PM,73.0,70.0,90,29.94,1.0,SW,6.9,-,0.05,Rain-Thunderstorm,Thunderstorms and Rain,230,2012-09-03 00:53:00
8:56 PM,73.4,69.8,88,29.96,2.0,SSW,6.9,-,0.00,Rain-Thunderstorm,Thunderstorms and Rain,200,2012-09-03 00:56:00
9:06 PM,73.4,69.8,88,29.96,2.0,SSE,5.8,-,0.01,Rain,Rain,160,2012-09-03 01:06:00
9:46 PM,73.4,68.0,83,29.95,2.0,South,6.9,-,0.08,Rain-Thunderstorm,Thunderstorms and Rain,190,2012-09-03 01:46:00
9:53 PM,73.0,68.0,84,29.94,2.0,SSW,10.4,-,0.08,Rain-Thunderstorm,Thunderstorms and Rain,200,2012-09-03 01:53:00
10:03 PM,71.6,68.0,88,29.96,4.0,South,5.8,-,0.01,Rain,Rain,170,2012-09-03 02:03:00
10:53 PM,72.0,69.1,91,29.96,5.0,Calm,Calm,-,0.05,Rain,Light Rain,0,2012-09-03 02:53:00
11:53 PM,72.0,69.1,91,29.94,10.0,Calm,Calm,-,0.00,,Overcast,0,2012-09-03 03:53:00